Location: Middle Street
(51.7167°N, 0.0333°E)
Time: 02:29:48
(UTC+00:00)

MOS 1 Rocket - Pass Details

Date: 20 January 2021
Orbit: 614 x 830 km, 97.4° (Epoch: 28 February)

Event Time Altitude Azimuth Distance (km) Brightness Sun altitude
Exits shadow 18:40:54 10° 11° (N) 2,056 5.5 -20.1°
Reaches altitude 10° 18:40:59 10° 11° (N) 2,021 5.5 -20.1°
Maximum altitude 18:45:21 76° 286° (WNW) 642 3.1 -20.8°
Drops below altitude 10° 18:49:36 10° 201° (SSW) 1,972 5.9 -21.4°
Sets 18:51:46 0° 200° (SSW) 2,876 6.8 -21.8°
